User: anonymous   Login
Location: Wien
(48.2082°N, 16.3738°E)
Time: 16:47:52
(UTC+02:00)
Language:

DOVE 4 - Orbit

View from above orbital plane
View from above orbital plane
View from above satellite
View from above satellite

Ground track
Ground track

The orbit data is extracted from the following two-line orbital elements,

1 39430U 13066Q   19144.11471263  .00000186  00000-0  42863-4 0  9991
2 39430  97.7446 102.3551 0151098 335.5013  23.9055 14.59242450292877
Epoch (UTC): 24 May 2019 02:45:11
Eccentricity: 0.0151098
inclination: 97.7446°
perigee height: 589 km
apogee height: 802 km
right ascension of ascending node: 102.3551°
argument of perigee: 335.5013°
revolutions per day: 14.59242450
mean anomaly at epoch: 23.9055°
orbit number at epoch: 29287

The dashed part of the orbit path shows where the satellite is in the earth's shadow,  

DLR